When you browse on this site, cookies collect data to enhance your experience and personalize the content and advertising you see.
Visit our Privacy Policy to learn more. By continuing to use the site, you agree to this use of cookies and data.
  • In France
  • List of Countries
  • For 7 days
  • Water Temperature
  • Satellite Maps
  • Weather Map
  • Weather Widgets
  • user-avatar
    Login

    Hourly Weather Tibissa

    Today, 19 January, Saturday

    Time Temperature Precipitation Wind Pressure Humidity
    00:00 +4°C° 0 mm 0 mps 683 mmHg 81%
    01:00 +4°C° 0 mm 0 mps 683 mmHg 82%
    02:00 +4°C° 0 mm 0 mps 682 mmHg 82%
    03:00 +3°C° 0 mm 0 mps 682 mmHg 83%
    04:00 +3°C° 0 mm 0 mps 682 mmHg 83%
    05:00 +3°C° 0 mm 0 mps 682 mmHg 83%
    06:00 +4°C° 0 mm 1 mps 682 mmHg 83%
    07:00 +3°C° 0 mm 1 mps 682 mmHg 83%
    08:00 +5°C° 0 mm 1 mps 682 mmHg 74%
    09:00 +7°C° 0 mm 1 mps 683 mmHg 66%
    10:00 +8°C° 0 mm 1 mps 683 mmHg 57%
    11:00 +9°C° 0 mm 1 mps 683 mmHg 53%
    12:00 +10°C° 0 mm 1 mps 683 mmHg 48%
    13:00 +11°C° 0 mm 1 mps 683 mmHg 44%
    14:00 +11°C° 0 mm 1 mps 682 mmHg 43%
    15:00 +10°C° 0 mm 2 mps 682 mmHg 42%
    16:00 +10°C° 0 mm 2 mps 682 mmHg 41%
    17:00 +10°C° 0.1 mm 2 mps 682 mmHg 47%
    18:00 +9°C° 0.1 mm 2 mps 682 mmHg 53%
    19:00 +8°C° 0.1 mm 2 mps 682 mmHg 58%
    20:00 +8°C° 0.1 mm 2 mps 682 mmHg 64%
    21:00 +7°C° 0.1 mm 2 mps 682 mmHg 70%
    22:00 +7°C° 0.1 mm 1 mps 682 mmHg 76%
    23:00 +6°C° 0 mm 1 mps 682 mmHg 81%

    Tomorrow, 20 January, Sunday

    Time Temperature Precipitation Wind Pressure Humidity
    00:00 +6°C° 0 mm 1 mps 682 mmHg 85%
    01:00 +5°C° 0 mm 1 mps 682 mmHg 89%
    02:00 +4°C° 0 mm 0 mps 682 mmHg 91%
    03:00 +3°C° 0 mm 0 mps 681 mmHg 92%
    04:00 +3°C° 0 mm 0 mps 681 mmHg 93%
    05:00 +3°C° 0 mm 0 mps 681 mmHg 92%
    06:00 +3°C° 0 mm 0 mps 681 mmHg 91%
    07:00 +3°C° 0 mm 1 mps 681 mmHg 91%
    08:00 +5°C° 0 mm 1 mps 681 mmHg 83%
    09:00 +5°C° 0 mm 2 mps 682 mmHg 76%
    10:00 +7°C° 0 mm 2 mps 682 mmHg 69%
    11:00 +8°C° 0 mm 3 mps 682 mmHg 62%
    12:00 +8°C° 0 mm 4 mps 682 mmHg 55%
    13:00 +8°C° 0 mm 6 mps 681 mmHg 48%
    14:00 +8°C° 0 mm 6 mps 681 mmHg 47%
    15:00 +8°C° 0 mm 7 mps 680 mmHg 46%
    16:00 +8°C° 0 mm 7 mps 680 mmHg 45%
    17:00 +6°C° 0.4 mm 7 mps 680 mmHg 53%
    18:00 +6°C° 0.4 mm 7 mps 680 mmHg 61%
    19:00 +5°C° 0.4 mm 7 mps 680 mmHg 69%
    20:00 +5°C° 0.4 mm 6 mps 680 mmHg 73%
    21:00 +4°C° 0.4 mm 6 mps 679 mmHg 77%
    22:00 +5°C° 0.4 mm 5 mps 679 mmHg 81%
    23:00 +5°C° 0.1 mm 5 mps 679 mmHg 83%

    Day after tomorrow, 21 January, Monday

    Time Temperature Precipitation Wind Pressure Humidity
    00:00 +5°C° 0.1 mm 4 mps 679 mmHg 84%
    01:00 +5°C° 0.1 mm 4 mps 679 mmHg 86%
    02:00 +4°C° 0 mm 4 mps 678 mmHg 88%
    03:00 +4°C° 0 mm 4 mps 678 mmHg 89%
    04:00 +4°C° 0 mm 4 mps 678 mmHg 91%
    05:00 +4°C° 0 mm 3 mps 678 mmHg 91%
    06:00 +3°C° 0 mm 3 mps 678 mmHg 91%
    07:00 +3°C° 0 mm 3 mps 678 mmHg 91%
    08:00 +4°C° 0 mm 3 mps 678 mmHg 84%
    09:00 +7°C° 0 mm 3 mps 678 mmHg 78%
    10:00 +8°C° 0 mm 3 mps 679 mmHg 71%
    11:00 +9°C° 0 mm 3 mps 679 mmHg 66%
    12:00 +10°C° 0 mm 4 mps 679 mmHg 61%
    13:00 +11°C° 0 mm 4 mps 679 mmHg 55%
    14:00 +11°C° 0 mm 4 mps 678 mmHg 56%
    15:00 +10°C° 0 mm 4 mps 678 mmHg 57%
    16:00 +10°C° 0 mm 4 mps 678 mmHg 58%
    17:00 +9°C° 0 mm 3 mps 678 mmHg 64%
    18:00 +8°C° 0 mm 3 mps 679 mmHg 71%
    19:00 +7°C° 0 mm 2 mps 679 mmHg 77%
    20:00 +6°C° 1.1 mm 4 mps 679 mmHg 82%
    21:00 +4°C° 1.1 mm 6 mps 680 mmHg 86%
    22:00 +2°C° 1.1 mm 8 mps 680 mmHg 91%
    23:00 +2°C° 0.6 mm 8 mps 680 mmHg 89%

    22 January, Tuesday

    Time Temperature Precipitation Wind Pressure Humidity
    00:00 +2°C° 0.6 mm 8 mps 680 mmHg 87%
    01:00 +1°C° 0.6 mm 8 mps 681 mmHg 85%
    02:00 +1°C° 0 mm 8 mps 680 mmHg 85%
    03:00 +2°C° 0 mm 7 mps 680 mmHg 86%
    04:00 0°C° 0 mm 7 mps 680 mmHg 86%
    05:00 0°C° 0 mm 7 mps 680 mmHg 88%
    06:00 +1°C° 0 mm 6 mps 681 mmHg 89%
    07:00 +1°C° 0 mm 6 mps 681 mmHg 91%
    08:00 +1°C° 0 mm 6 mps 681 mmHg 87%
    09:00 +2°C° 0 mm 7 mps 681 mmHg 83%
    10:00 +2°C° 0 mm 7 mps 682 mmHg 78%
    11:00 +3°C° 0 mm 7 mps 681 mmHg 75%
    12:00 +2°C° 0 mm 8 mps 681 mmHg 72%
    13:00 +4°C° 0 mm 8 mps 681 mmHg 69%
    14:00 +4°C° 0 mm 8 mps 681 mmHg 66%
    15:00 +4°C° 0 mm 7 mps 680 mmHg 64%
    16:00 +4°C° 0 mm 7 mps 680 mmHg 61%
    17:00 +3°C° 0 mm 6 mps 680 mmHg 64%
    18:00 +4°C° 0 mm 4 mps 680 mmHg 68%
    19:00 +3°C° 0 mm 3 mps 680 mmHg 71%
    20:00 +3°C° 0 mm 3 mps 679 mmHg 70%
    21:00 +2°C° 0 mm 3 mps 679 mmHg 69%
    22:00 +2°C° 0 mm 3 mps 679 mmHg 69%
    23:00 +2°C° 0 mm 3 mps 679 mmHg 72%

    23 January, Wednesday

    Time Temperature Precipitation Wind Pressure Humidity
    00:00 +1°C° 0 mm 4 mps 678 mmHg 75%
    01:00 +1°C° 0 mm 5 mps 677 mmHg 78%
    02:00 0°C° 0 mm 5 mps 676 mmHg 77%
    03:00 -1°C° 0 mm 6 mps 676 mmHg 76%
    04:00 -1°C° 0 mm 6 mps 675 mmHg 75%
    05:00 -1°C° 0 mm 7 mps 674 mmHg 71%
    06:00 -1°C° 0 mm 7 mps 673 mmHg 66%
    07:00 -1°C° 0 mm 8 mps 672 mmHg 62%
    08:00 0°C° 0 mm 9 mps 672 mmHg 65%
    09:00 +1°C° 0 mm 11 mps 672 mmHg 69%
    10:00 0°C° 0 mm 12 mps 672 mmHg 72%
    11:00 +2°C° 0.4 mm 12 mps 671 mmHg 73%
    12:00 +2°C° 0.4 mm 12 mps 671 mmHg 74%
    13:00 +2°C° 0.4 mm 11 mps 670 mmHg 75%
    14:00 0°C° 0.8 mm 12 mps 670 mmHg 72%
    15:00 0°C° 0.8 mm 12 mps 669 mmHg 70%
    16:00 0°C° 0.8 mm 12 mps 669 mmHg 67%
    17:00 -1°C° 0 mm 11 mps 669 mmHg 70%
    18:00 -1°C° 0 mm 9 mps 669 mmHg 73%
    19:00 -2°C° 0 mm 7 mps 670 mmHg 76%
    20:00 -3°C° 0.2 mm 6 mps 669 mmHg 79%
    21:00 -2°C° 0.2 mm 5 mps 669 mmHg 83%
    22:00 -2°C° 0.2 mm 4 mps 669 mmHg 86%
    23:00 -2°C° 1.4 mm 4 mps 669 mmHg 89%

    24 January, Thursday

    Time Temperature Precipitation Wind Pressure Humidity
    00:00 -2°C° 1.4 mm 5 mps 668 mmHg 92%
    01:00 -1°C° 1.4 mm 5 mps 668 mmHg 94%
    02:00 -3°C° 0.2 mm 6 mps 668 mmHg 92%
    03:00 -4°C° 0.2 mm 6 mps 668 mmHg 89%
    04:00 -4°C° 0.2 mm 7 mps 667 mmHg 87%
    05:00 -6°C° 0 mm 7 mps 668 mmHg 86%
    06:00 -6°C° 0 mm 7 mps 668 mmHg 86%
    07:00 -7°C° 0 mm 8 mps 668 mmHg 86%
    08:00 -6°C° 0 mm 9 mps 668 mmHg 83%
    09:00 -5°C° 0 mm 10 mps 669 mmHg 80%
    10:00 -6°C° 0 mm 11 mps 669 mmHg 78%
    11:00 -4°C° 0 mm 11 mps 670 mmHg 76%
    12:00 -4°C° 0 mm 11 mps 670 mmHg 74%
    13:00 -3°C° 0 mm 11 mps 670 mmHg 72%
    14:00 -3°C° 0 mm 11 mps 670 mmHg 71%
    15:00 -3°C° 0 mm 11 mps 670 mmHg 69%
    16:00 -3°C° 0 mm 10 mps 670 mmHg 68%
    17:00 -3°C° 0 mm 9 mps 671 mmHg 71%
    18:00 -4°C° 0 mm 8 mps 671 mmHg 73%
    19:00 -4°C° 0 mm 6 mps 672 mmHg 76%
    20:00 -4°C° 0 mm 6 mps 672 mmHg 77%
    21:00 -5°C° 0 mm 6 mps 672 mmHg 77%
    22:00 -5°C° 0 mm 5 mps 672 mmHg 78%
    23:00 -5°C° 0 mm 5 mps 672 mmHg 76%
    Show more